weather.gov     
National Weather Service

Regional Weather Roundup
NWS Homepage
This page is being discontinued on March 12, 2014.
The same data is available at this site. Please update your bookmarks.
Thank you, and we apologize for the inconvenience.
Please send an email to SR-SRH.Webmaster@noaa.gov with any concerns.


Current Version
Previous Version:    01  02  03  04  05  06  07  08  09  10  11  12  13  14  15  16  17  18  19  20  21  22  23  24  25  26  27  28  29  30  
   31  32  33  34  35  36  37  38  39  40  41  42  43  44  45  46  47  48  49  50  51  52  53  54  55  56  57  58  59  60  
[Printable]
101
ASMX46 KSGX 250703
RWRMX

MEXICAN WEATHER ROUNDUP
NATIONAL WEATHER SERVICE SAN DIEGO CA
1200 AM PDT FRI APR 25 2014

BAJA CALIFORNIA

CITY           SKY/WX    TMP DP  RH WIND       PRES   REMARKS
ENSENADA NW      N/A     58  32  37 N1        29.95F
LA PAZ           N/A    N/A N/A N/A MISG        N/A
TIJUANA        CLEAR     57  52  82 N3        29.99S

NORTHWESTERN MEXICO

CITY           SKY/WX    TMP DP  RH WIND       PRES   REMARKS

NORTHEASTERN MEXICO

CITY           SKY/WX    TMP DP  RH WIND       PRES   REMARKS
MONTERREY      CLEAR     73  57  56 E5        29.89F
SALTILLO       CLEAR     66  50  55 NE7       30.12S

WESTERN MEXICO

CITY           SKY/WX    TMP DP  RH WIND       PRES   REMARKS
GUADALAJARA    MOCLDY    68  41  37 W10       30.14F
MAZATLAN       CLOUDY    72  46  40 S10       29.88R
PTO. VALLARTA  CLEAR     73  66  78 CALM      29.89S
ZACATECAS      MOCLDY    61  34  36 W8        30.25F

CENTRAL MEXICO

CITY           SKY/WX    TMP DP  RH WIND       PRES   REMARKS
MEXICO CITY    MOCLDY    66  41  39 S6        30.30F
MORELIA        MOCLDY    61  46  59 SW7       30.19F
QUERETARO      PTCLDY    66  46  48 CALM      30.24S
S. LUIS POTOSI PTCLDY    64  55  72 S5        30.17F
TOLUCA         MOCLDY    52  45  76 NE5       30.39F

SOUTHERN MEXICO

CITY           SKY/WX    TMP DP  RH WIND       PRES   REMARKS
ACAPULCO       PTCLDY    81  73  78 W5        29.88S
TAPACHULA      PTCLDY    79  75  89 CALM      29.90F

YUCATAN PENINSULA

CITY           SKY/WX    TMP DP  RH WIND       PRES   REMARKS
CANCUN         CLEAR     77  72  83 SE6       29.92F
COZUMEL        CLEAR     68  68 100 CALM      29.92F
MERIDA         CLEAR     81  66  61 SE9       29.88F

$$





U.S. Dept. of Commerce
NOAA National Weather Service
1325 East West Highway
Silver Spring, MD 20910
E-mail: w-nws.webmaster@noaa.gov
Page last modified: May 16, 2007
NATIONAL WEATHER SERVICE: for Safety, for Work, for Fun - FOR LIFE